TimeEST,TemperatureF,Dew PointF,Humidity,Sea Level PressureIn,VisibilityMPH,Wind Direction,Wind SpeedMPH,Gust SpeedMPH,PrecipitationIn,Events,Conditions,WindDirDegrees,DateUTC
12:15 AM,23.0,14.0,68,30.35,10.0,SW,5.8,-,N/A,,Overcast,230,2013-01-18 05:15:00
12:35 AM,23.0,14.0,68,30.35,10.0,SW,6.9,-,N/A,,Overcast,230,2013-01-18 05:35:00
12:55 AM,24.8,14.0,64,30.36,10.0,WSW,6.9,-,N/A,,Overcast,240,2013-01-18 05:55:00
1:15 AM,23.0,14.0,68,30.37,10.0,SW,6.9,-,N/A,,Overcast,230,2013-01-18 06:15:00
1:35 AM,23.0,14.0,68,30.37,10.0,SW,6.9,-,N/A,,Overcast,230,2013-01-18 06:35:00
1:55 AM,23.0,14.0,68,30.38,10.0,WSW,6.9,-,N/A,,Overcast,240,2013-01-18 06:55:00
2:15 AM,23.0,14.0,68,30.39,10.0,WSW,5.8,-,N/A,,Mostly Cloudy,240,2013-01-18 07:15:00
2:35 AM,23.0,15.8,74,30.40,10.0,SW,4.6,-,N/A,,Overcast,230,2013-01-18 07:35:00
2:55 AM,23.0,14.0,68,30.40,10.0,WSW,6.9,-,N/A,,Overcast,250,2013-01-18 07:55:00
3:15 AM,23.0,14.0,68,30.41,10.0,SW,5.8,-,N/A,,Scattered Clouds,230,2013-01-18 08:15:00
3:35 AM,23.0,14.0,68,30.40,10.0,SW,3.5,-,N/A,,Clear,230,2013-01-18 08:35:00
3:55 AM,23.0,14.0,68,30.40,10.0,SW,6.9,-,N/A,,Clear,230,2013-01-18 08:55:00
4:15 AM,23.0,14.0,68,30.40,10.0,SW,6.9,-,N/A,,Clear,230,2013-01-18 09:15:00
4:35 AM,23.0,12.2,63,30.40,10.0,SW,4.6,-,N/A,,Clear,230,2013-01-18 09:35:00
4:55 AM,21.2,12.2,68,30.40,10.0,SW,4.6,-,N/A,,Clear,220,2013-01-18 09:55:00
5:15 AM,21.2,12.2,68,30.40,10.0,WSW,4.6,-,N/A,,Clear,240,2013-01-18 10:15:00
5:35 AM,21.2,12.2,68,30.40,10.0,SW,4.6,-,N/A,,Clear,230,2013-01-18 10:35:00
5:55 AM,21.2,12.2,68,30.40,10.0,SW,5.8,-,N/A,,Clear,230,2013-01-18 10:55:00
6:15 AM,21.2,14.0,74,30.41,10.0,SW,5.8,-,N/A,,Clear,230,2013-01-18 11:15:00
6:35 AM,21.2,14.0,74,30.41,10.0,WSW,4.6,-,N/A,,Clear,240,2013-01-18 11:35:00
6:55 AM,21.2,14.0,74,30.42,10.0,SW,4.6,-,N/A,,Clear,230,2013-01-18 11:55:00
7:15 AM,23.0,14.0,68,30.41,10.0,SW,5.8,-,N/A,,Clear,230,2013-01-18 12:15:00
7:35 AM,23.0,14.0,68,30.42,10.0,SW,3.5,-,N/A,,Clear,230,2013-01-18 12:35:00
7:55 AM,23.0,14.0,68,30.42,10.0,SW,4.6,-,N/A,,Clear,220,2013-01-18 12:55:00
8:15 AM,23.0,14.0,68,30.42,10.0,SSW,3.5,-,N/A,,Clear,210,2013-01-18 13:15:00
8:35 AM,23.0,15.8,74,30.42,10.0,SSW,3.5,-,N/A,,Clear,210,2013-01-18 13:35:00
9:15 AM,24.8,15.8,69,30.43,10.0,SSW,5.8,-,N/A,,Clear,200,2013-01-18 14:15:00
9:35 AM,24.8,17.6,74,30.43,10.0,SSW,4.6,-,N/A,,Mostly Cloudy,200,2013-01-18 14:35:00
9:55 AM,26.6,17.6,69,30.42,10.0,SSW,9.2,-,N/A,,Overcast,200,2013-01-18 14:55:00
10:15 AM,28.4,17.6,64,30.42,10.0,SSW,9.2,-,N/A,,Overcast,200,2013-01-18 15:15:00
10:35 AM,28.4,17.6,64,30.42,10.0,SSW,10.4,-,N/A,,Overcast,200,2013-01-18 15:35:00
10:55 AM,28.4,17.6,64,30.41,10.0,SSW,9.2,16.1,N/A,,Overcast,210,2013-01-18 15:55:00
11:15 AM,30.2,17.6,60,30.40,10.0,SSW,6.9,-,N/A,,Mostly Cloudy,200,2013-01-18 16:15:00
11:35 AM,30.2,17.6,60,30.40,10.0,SSW,11.5,-,N/A,,Scattered Clouds,200,2013-01-18 16:35:00
11:55 AM,32.0,19.4,60,30.38,10.0,SSW,9.2,18.4,N/A,,Clear,210,2013-01-18 16:55:00
12:15 PM,32.0,17.6,55,30.36,10.0,SSW,9.2,17.3,N/A,,Clear,210,2013-01-18 17:15:00
12:35 PM,32.0,19.4,60,30.35,10.0,SSW,9.2,-,N/A,,Clear,210,2013-01-18 17:35:00
12:55 PM,32.0,19.4,60,30.32,10.0,SW,11.5,16.1,N/A,,Clear,220,2013-01-18 17:55:00
1:15 PM,33.8,19.4,56,30.31,10.0,SSW,9.2,19.6,N/A,,Clear,210,2013-01-18 18:15:00
1:35 PM,33.8,19.4,56,30.30,10.0,South,11.5,18.4,N/A,,Clear,190,2013-01-18 18:35:00
1:55 PM,33.8,19.4,56,30.28,10.0,SSW,13.8,19.6,N/A,,Clear,200,2013-01-18 18:55:00
2:15 PM,33.8,19.4,56,30.27,10.0,SSW,11.5,17.3,N/A,,Clear,200,2013-01-18 19:15:00
2:35 PM,35.6,21.2,56,30.26,10.0,SSW,13.8,21.9,N/A,,Clear,210,2013-01-18 19:35:00
2:55 PM,35.6,19.4,52,30.24,10.0,SSW,12.7,18.4,N/A,,Clear,200,2013-01-18 19:55:00
3:15 PM,35.6,19.4,52,30.22,10.0,SSW,12.7,19.6,N/A,,Clear,200,2013-01-18 20:15:00
3:35 PM,35.6,19.4,52,30.20,10.0,SSW,15.0,23.0,N/A,,Clear,200,2013-01-18 20:35:00
3:55 PM,35.6,19.4,52,30.20,10.0,SSW,15.0,25.3,N/A,,Clear,200,2013-01-18 20:55:00
4:15 PM,35.6,19.4,52,30.20,10.0,SSW,13.8,24.2,N/A,,Clear,200,2013-01-18 21:15:00
4:35 PM,35.6,19.4,52,30.19,10.0,SSW,12.7,20.7,N/A,,Clear,200,2013-01-18 21:35:00
4:55 PM,35.6,19.4,52,30.17,10.0,SSW,15.0,23.0,N/A,,Clear,200,2013-01-18 21:55:00
5:15 PM,35.6,19.4,52,30.17,10.0,SSW,13.8,21.9,N/A,,Clear,200,2013-01-18 22:15:00
5:35 PM,33.8,19.4,56,30.15,10.0,South,10.4,17.3,N/A,,Clear,190,2013-01-18 22:35:00
5:55 PM,33.8,19.4,56,30.15,10.0,South,10.4,-,N/A,,Clear,190,2013-01-18 22:55:00
6:15 PM,33.8,19.4,56,30.13,10.0,South,11.5,18.4,N/A,,Clear,190,2013-01-18 23:15:00
6:35 PM,33.8,19.4,56,30.13,10.0,South,11.5,17.3,N/A,,Clear,190,2013-01-18 23:35:00
6:55 PM,33.8,19.4,56,30.12,10.0,South,12.7,23.0,N/A,,Clear,190,2013-01-18 23:55:00
7:15 PM,33.8,21.2,60,30.11,10.0,SSW,11.5,21.9,N/A,,Clear,200,2013-01-19 00:15:00
7:35 PM,33.8,21.2,60,30.10,10.0,SSW,12.7,24.2,N/A,,Clear,200,2013-01-19 00:35:00
7:55 PM,35.6,21.2,56,30.08,10.0,SSW,16.1,25.3,N/A,,Clear,200,2013-01-19 00:55:00
8:15 PM,35.6,21.2,56,30.08,10.0,South,15.0,27.6,N/A,,Clear,190,2013-01-19 01:15:00
8:35 PM,35.6,21.2,56,30.06,10.0,SSW,19.6,28.8,N/A,,Clear,200,2013-01-19 01:35:00
8:55 PM,35.6,21.2,56,30.05,10.0,SSW,19.6,31.1,N/A,,Clear,200,2013-01-19 01:55:00
9:15 PM,35.6,21.2,56,30.05,10.0,SSW,15.0,23.0,N/A,,Clear,200,2013-01-19 02:15:00
9:55 PM,37.4,21.2,52,30.05,10.0,SSW,15.0,23.0,N/A,,Clear,210,2013-01-19 02:55:00
10:15 PM,37.4,21.2,52,30.05,10.0,SW,13.8,25.3,N/A,,Clear,220,2013-01-19 03:15:00
10:35 PM,37.4,21.2,52,30.05,10.0,SW,12.7,25.3,N/A,,Clear,220,2013-01-19 03:35:00
11:15 PM,37.4,21.2,52,30.04,10.0,SW,12.7,25.3,N/A,,Clear,220,2013-01-19 04:15:00
11:35 PM,37.4,21.2,52,30.03,10.0,SW,15.0,27.6,N/A,,Clear,220,2013-01-19 04:35:00
11:55 PM,37.4,23.0,56,30.03,10.0,SW,13.8,23.0,N/A,,Clear,220,2013-01-19 04:55:00